EW2137 Weather Reports


Display with metric or nautical units.
time (UTC)temp
F
wind
direction
speed
MPH
gust
MPH
rain 1hr
in
rain 24hr
in
rain mn
in
humidity
%
barometer
mb
20260503021602 72 82 1.0 7.0 0.00 0.00 0.00 44 1008.2
20260503020101 72 82 4.0 9.0 0.00 0.00 0.00 43 1008.2
20260503014557 73 72 6.0 9.0 0.00 0.00 0.00 42 1008.1
20260503013100 74 77 7.0 11.0 0.00 0.00 0.00 41 1008.0
20260503011620 75 72 8.0 11.0 0.00 0.00 0.00 41 1008.0
20260503010058 76 72 8.0 13.0 0.00 0.00 0.00 41 1008.0
20260503004555 77 74 6.0 12.0 0.00 0.00 0.00 35 1008.1
20260503003054 77 65 8.0 12.0 0.00 0.00 0.00 35 1008.2
20260503001554 79 71 9.0 13.0 0.00 0.00 0.00 32 1008.1
20260503000104 80 50 8.0 14.0 0.00 0.00 0.00 29 1008.2
20260502234601 80 44 7.0 11.0 0.00 0.00 0.00 29 1008.4
20260502233048 80 28 7.0 11.0 0.00 0.00 0.00 29 1008.5
20260502231547 80 16 6.0 10.0 0.00 0.00 0.00 30 1008.8
20260502230043 79 31 7.0 10.0 0.00 0.00 0.00 30 1009.0
20260502224540 79 5 6.0 12.0 0.00 0.00 0.00 31 1009.3
20260502223038 78 51 7.0 16.0 0.00 0.00 0.00 35 1009.5
20260502221535 78 26 6.0 14.0 0.00 0.00 0.00 35 1009.7
20260502220038 77 43 7.0 12.0 0.00 0.00 0.00 35 1009.9
20260502214530 76 55 6.0 10.0 0.00 0.00 0.00 37 1010.1
20260502213035 75 80 5.0 10.0 0.00 0.00 0.00 46 1010.2
20260502211534 74 91 6.0 11.0 0.00 0.00 0.00 45 1010.4
20260502210027 74 100 6.0 10.0 0.00 0.00 0.00 44 1010.6
20260502204526 74 57 6.0 11.0 0.00 0.00 0.00 46 1010.7
20260502203023 73 99 3.0 8.0 0.00 0.00 0.00 52 1010.7
20260502201523 72 284 5.0 9.0 0.00 0.00 0.00 51 1010.8
20260502200023 72 272 3.0 9.0 0.00 0.00 0.00 53 1010.9
20260502194523 73 180 3.0 5.0 0.00 0.00 0.00 45 1011.0
20260502193020 73 96 1.0 4.0 0.00 0.00 0.00 42 1011.2
20260502191516 71 109 1.0 6.0 0.00 0.00 0.00 45 1011.2
20260502190012 70 158 2.0 9.0 0.00 0.00 0.00 51 1011.2
20260502184510 68 177 1.0 3.0 0.00 0.00 0.00 56 1011.2
20260502183006 67 212 1.0 3.0 0.00 0.00 0.00 61 1011.2
20260502181506 67 200 2.0 3.0 0.00 0.00 0.00 56 1010.9
20260502163058 65 238 0.0 4.0 0.00 0.00 0.00 55 1011.9
20260502161604 65 276 2.0 4.0 0.00 0.00 0.00 57 1011.9
20260502151603 60 284 3.0 8.0 0.00 0.00 0.00 70 1011.4
20260502123034 55 228 5.0 13.0 0.00 0.00 0.00 75 1010.5
20260502121536 55 355 1.0 3.0 0.00 0.00 0.00 74 1009.9
20260502114525 55 232 7.0 10.0 0.00 0.00 0.00 74 1010.5
20260502113033 55 171 2.0 6.0 0.00 0.00 0.00 75 1010.4
20260502111520 56 240 7.0 15.0 0.00 0.00 0.00 73 1010.5
20260502110027 57 215 11.0 17.0 0.00 0.00 0.00 70 1010.6
20260502104518 57 217 7.0 10.0 0.00 0.00 0.00 71 1010.4
20260502103017 57 224 7.0 10.0 0.00 0.00 0.00 70 1010.4
20260502101517 57 226 7.0 11.0 0.00 0.00 0.00 70 1010.4
20260502091512 57 228 9.0 13.0 0.00 0.00 0.00 69 1010.5
20260502071501 58 223 8.0 14.0 0.00 0.00 0.00 66 1010.9
20260502070113 57 219 9.0 11.0 0.00 0.00 0.00 65 1011.0
20260502064623 58 211 8.0 11.0 0.00 0.00 0.00 57 1010.9
20260502063058 59 219 4.0 6.0 0.00 0.00 0.00 54 1010.9
20260502061558 59 217 3.0 5.0 0.00 0.00 0.00 53 1010.8
20260502060057 62 190 2.0 4.0 0.00 0.00 0.00 49 1010.8
20260502054600 62 207 1.0 3.0 0.00 0.00 0.00 48 1010.7
20260502053056 61 202 1.0 3.0 0.00 0.00 0.00 52 1010.7
20260502051556 60 202 0.0 1.0 0.00 0.00 0.00 55 1010.9
20260502050055 60 208 1.0 6.0 0.00 0.00 0.00 53 1010.9
20260502044557 64 221 3.0 4.0 0.00 0.00 0.00 45 1010.8
20260502043054 65 55 0.0 3.0 0.00 0.00 0.00 46 1010.7
20260502041601 67 49 2.0 4.0 0.00 0.00 0.00 44 1010.6
20260502040054 68 20 2.0 6.0 0.00 0.00 0.00 40 1010.4
20260502034553 69 54 5.0 8.0 0.00 0.00 0.00 39 1010.2
20260502033100 68 57 6.0 8.0 0.00 0.00 0.00 40 1009.9
20260502031558 69 57 6.0 11.0 0.00 0.00 0.00 40 1009.9
20260502030055 69 63 7.0 9.0 0.00 0.00 0.00 38 1009.7
20260502024605 70 63 7.0 11.0 0.00 0.00 0.00 39 1009.6
20260502023107 70 63 7.0 13.0 0.00 0.00 0.00 38 1009.6